When you browse on this site, cookies collect data to enhance your experience and personalize the content and advertising you see.
Visit our Privacy Policy to learn more. By continuing to use the site, you agree to this use of cookies and data.
  • In Hungary
  • List of Countries
  • For 7 days
  • Water Temperature
  • Weather Map
  • News
  • Weather Widgets
  • user-avatar
    Login

    Hourly Weather Maloe Churaevo

    Today, 22 October, Tuesday

    Time Temperature Precipitation Wind Pressure Humidity
    00:00 -1°C° 0 mm 2 mps 747 mmHg 52%
    01:00 -1°C° 0 mm 2 mps 746 mmHg 53%
    02:00 -1°C° 0 mm 2 mps 746 mmHg 53%
    03:00 -1°C° 0 mm 2 mps 746 mmHg 53%
    04:00 -1°C° 0 mm 2 mps 746 mmHg 55%
    05:00 -1°C° 0 mm 2 mps 745 mmHg 55%
    06:00 -1°C° 0 mm 3 mps 745 mmHg 55%
    07:00 -1°C° 0 mm 3 mps 745 mmHg 55%
    08:00 0°C° 0 mm 3 mps 744 mmHg 53%
    09:00 +1°C° 0 mm 3 mps 744 mmHg 50%
    10:00 +3°C° 0 mm 4 mps 744 mmHg 48%
    11:00 +3°C° 0 mm 5 mps 744 mmHg 49%
    12:00 +5°C° 0 mm 5 mps 743 mmHg 50%
    13:00 +4°C° 0 mm 6 mps 743 mmHg 51%
    14:00 +4°C° 0 mm 6 mps 743 mmHg 54%
    15:00 +5°C° 0 mm 5 mps 743 mmHg 57%
    16:00 +5°C° 0 mm 5 mps 742 mmHg 58%
    17:00 +5°C° 0.2 mm 5 mps 742 mmHg 64%
    18:00 +3°C° 0.2 mm 5 mps 742 mmHg 70%
    19:00 +3°C° 0.2 mm 5 mps 742 mmHg 75%
    20:00 +3°C° 0.3 mm 5 mps 742 mmHg 80%
    21:00 +4°C° 0.3 mm 4 mps 742 mmHg 85%
    22:00 +4°C° 0.3 mm 4 mps 741 mmHg 90%
    23:00 +4°C° 0.2 mm 4 mps 741 mmHg 90%

    Tomorrow, 23 October, Wednesday

    Time Temperature Precipitation Wind Pressure Humidity
    00:00 +4°C° 0.2 mm 4 mps 741 mmHg 90%
    01:00 +4°C° 0.2 mm 4 mps 741 mmHg 90%
    02:00 +4°C° 0.2 mm 4 mps 741 mmHg 91%
    03:00 +4°C° 0.2 mm 4 mps 741 mmHg 92%
    04:00 +4°C° 0.2 mm 4 mps 741 mmHg 93%
    05:00 +4°C° 0 mm 3 mps 741 mmHg 93%
    06:00 +4°C° 0 mm 3 mps 741 mmHg 94%
    07:00 +5°C° 0 mm 3 mps 741 mmHg 94%
    08:00 +5°C° 0 mm 3 mps 741 mmHg 93%
    09:00 +7°C° 0 mm 3 mps 741 mmHg 92%
    10:00 +7°C° 0 mm 2 mps 741 mmHg 90%
    11:00 +8°C° 0 mm 3 mps 741 mmHg 89%
    12:00 +8°C° 0 mm 3 mps 740 mmHg 87%
    13:00 +7°C° 0 mm 4 mps 740 mmHg 86%
    14:00 +8°C° 0 mm 4 mps 740 mmHg 86%
    15:00 +8°C° 0 mm 4 mps 740 mmHg 87%
    16:00 +8°C° 0 mm 4 mps 740 mmHg 87%
    17:00 +8°C° 0 mm 4 mps 740 mmHg 86%
    18:00 +8°C° 0 mm 4 mps 740 mmHg 85%
    19:00 +7°C° 0 mm 4 mps 740 mmHg 84%
    20:00 +7°C° 0 mm 4 mps 740 mmHg 84%
    21:00 +7°C° 0 mm 4 mps 740 mmHg 84%
    22:00 +7°C° 0 mm 4 mps 739 mmHg 84%
    23:00 +6°C° 0 mm 4 mps 739 mmHg 86%

    Day after tomorrow, 24 October, Thursday

    Time Temperature Precipitation Wind Pressure Humidity
    00:00 +6°C° 0 mm 4 mps 739 mmHg 87%
    01:00 +7°C° 0 mm 3 mps 739 mmHg 88%
    02:00 +6°C° 0 mm 4 mps 739 mmHg 90%
    03:00 +5°C° 0 mm 4 mps 739 mmHg 92%
    04:00 +5°C° 0 mm 4 mps 739 mmHg 94%
    05:00 +6°C° 0 mm 4 mps 739 mmHg 94%
    06:00 +6°C° 0 mm 4 mps 739 mmHg 94%
    07:00 +6°C° 0 mm 4 mps 739 mmHg 94%
    08:00 +7°C° 0.1 mm 4 mps 739 mmHg 94%
    09:00 +7°C° 0.1 mm 5 mps 739 mmHg 94%
    10:00 +7°C° 0.1 mm 5 mps 739 mmHg 94%
    11:00 +8°C° 0.1 mm 5 mps 740 mmHg 94%
    12:00 +8°C° 0.1 mm 5 mps 740 mmHg 95%
    13:00 +8°C° 0.1 mm 4 mps 740 mmHg 95%
    14:00 +8°C° 0 mm 4 mps 740 mmHg 95%
    15:00 +8°C° 0 mm 4 mps 740 mmHg 95%
    16:00 +10°C° 0 mm 3 mps 740 mmHg 95%
    17:00 +9°C° 0.1 mm 3 mps 740 mmHg 95%
    18:00 +9°C° 0.1 mm 2 mps 741 mmHg 96%
    19:00 +9°C° 0.1 mm 2 mps 741 mmHg 96%
    20:00 +9°C° 0.1 mm 2 mps 741 mmHg 96%
    21:00 +8°C° 0.1 mm 2 mps 741 mmHg 97%
    22:00 +8°C° 0.1 mm 2 mps 741 mmHg 97%
    23:00 +8°C° 0 mm 2 mps 742 mmHg 97%

    25 October, Friday

    Time Temperature Precipitation Wind Pressure Humidity
    00:00 +9°C° 0 mm 1 mps 742 mmHg 97%
    01:00 +9°C° 0 mm 1 mps 742 mmHg 98%
    02:00 +9°C° 0 mm 1 mps 742 mmHg 98%
    03:00 +9°C° 0 mm 1 mps 742 mmHg 98%
    04:00 +8°C° 0 mm 2 mps 742 mmHg 98%
    05:00 +8°C° 0 mm 2 mps 742 mmHg 98%
    06:00 +8°C° 0 mm 2 mps 742 mmHg 98%
    07:00 +8°C° 0 mm 2 mps 742 mmHg 98%
    08:00 +8°C° 0 mm 2 mps 742 mmHg 97%
    09:00 +9°C° 0 mm 3 mps 742 mmHg 96%
    10:00 +9°C° 0 mm 3 mps 742 mmHg 95%
    11:00 +10°C° 0 mm 3 mps 742 mmHg 94%
    12:00 +10°C° 0 mm 3 mps 742 mmHg 92%
    13:00 +11°C° 0 mm 4 mps 742 mmHg 91%
    14:00 +11°C° 0 mm 3 mps 743 mmHg 90%
    15:00 +11°C° 0 mm 3 mps 743 mmHg 90%
    16:00 +11°C° 0 mm 3 mps 743 mmHg 89%
    17:00 +12°C° 0 mm 2 mps 743 mmHg 91%
    18:00 +10°C° 0 mm 2 mps 743 mmHg 93%
    19:00 +10°C° 0 mm 2 mps 743 mmHg 95%
    20:00 +10°C° 0 mm 1 mps 743 mmHg 95%
    21:00 +10°C° 0 mm 1 mps 744 mmHg 95%
    22:00 +10°C° 0 mm 1 mps 744 mmHg 95%
    23:00 +10°C° 0 mm 1 mps 744 mmHg 95%

    26 October, Saturday

    Time Temperature Precipitation Wind Pressure Humidity
    00:00 +9°C° 0 mm 1 mps 744 mmHg 95%
    01:00 +9°C° 0 mm 1 mps 744 mmHg 95%
    02:00 +9°C° 0 mm 1 mps 744 mmHg 96%
    03:00 +9°C° 0 mm 1 mps 744 mmHg 97%
    04:00 +9°C° 0 mm 1 mps 744 mmHg 97%
    05:00 +9°C° 0 mm 1 mps 744 mmHg 97%
    06:00 +9°C° 0 mm 1 mps 744 mmHg 96%
    07:00 +8°C° 0 mm 2 mps 745 mmHg 96%
    08:00 +9°C° 0 mm 2 mps 745 mmHg 92%
    09:00 +10°C° 0 mm 3 mps 745 mmHg 89%
    10:00 +11°C° 0 mm 3 mps 745 mmHg 85%
    11:00 +12°C° 0 mm 3 mps 745 mmHg 81%
    12:00 +13°C° 0 mm 4 mps 745 mmHg 76%
    13:00 +13°C° 0 mm 4 mps 745 mmHg 72%
    14:00 +13°C° 0 mm 4 mps 745 mmHg 72%
    15:00 +13°C° 0 mm 3 mps 744 mmHg 72%
    16:00 +13°C° 0 mm 3 mps 744 mmHg 72%
    17:00 +12°C° 0 mm 3 mps 744 mmHg 75%
    18:00 +12°C° 0 mm 2 mps 744 mmHg 79%
    19:00 +10°C° 0 mm 2 mps 744 mmHg 83%
    20:00 +9°C° 0 mm 2 mps 744 mmHg 80%
    21:00 +9°C° 0 mm 2 mps 744 mmHg 78%
    22:00 +8°C° 0 mm 2 mps 744 mmHg 76%
    23:00 +8°C° 0 mm 2 mps 744 mmHg 74%

    27 October, Sunday

    Time Temperature Precipitation Wind Pressure Humidity
    00:00 +8°C° 0 mm 2 mps 744 mmHg 73%
    01:00 +7°C° 0 mm 2 mps 744 mmHg 72%
    02:00 +7°C° 0 mm 2 mps 743 mmHg 72%
    03:00 +7°C° 0 mm 2 mps 743 mmHg 72%
    04:00 +6°C° 0 mm 2 mps 743 mmHg 73%
    05:00 +6°C° 0 mm 2 mps 743 mmHg 73%
    06:00 +6°C° 0 mm 2 mps 743 mmHg 74%
    07:00 +5°C° 0 mm 2 mps 743 mmHg 75%
    08:00 +7°C° 0 mm 2 mps 743 mmHg 70%
    09:00 +8°C° 0 mm 3 mps 743 mmHg 65%
    10:00 +10°C° 0 mm 3 mps 743 mmHg 60%
    11:00 +11°C° 0 mm 4 mps 743 mmHg 57%
    12:00 +12°C° 0 mm 4 mps 743 mmHg 53%
    13:00 +13°C° 0 mm 5 mps 742 mmHg 49%
    14:00 +13°C° 0 mm 4 mps 742 mmHg 51%
    15:00 +12°C° 0 mm 4 mps 742 mmHg 52%
    16:00 +12°C° 0 mm 3 mps 741 mmHg 54%
    17:00 +11°C° 0 mm 3 mps 741 mmHg 58%
    18:00 +10°C° 0 mm 3 mps 741 mmHg 62%
    19:00 +9°C° 0 mm 3 mps 741 mmHg 67%
    20:00 +8°C° 0 mm 3 mps 740 mmHg 69%
    21:00 +8°C° 0 mm 3 mps 740 mmHg 70%
    22:00 +8°C° 0 mm 2 mps 740 mmHg 72%
    23:00 +7°C° 0 mm 2 mps 740 mmHg 74%

    28 October, Monday

    Time Temperature Precipitation Wind Pressure Humidity
    00:00 +7°C° 0 mm 3 mps 740 mmHg 76%
    01:00 +7°C° 0 mm 3 mps 739 mmHg 77%
    02:00 +7°C° 0 mm 3 mps 739 mmHg 78%
    03:00 +5°C° 0 mm 3 mps 739 mmHg 79%
    04:00 +5°C° 0 mm 3 mps 738 mmHg 80%
    05:00 +5°C° 0 mm 3 mps 738 mmHg 80%
    06:00 +5°C° 0 mm 3 mps 738 mmHg 81%
    07:00 +4°C° 0 mm 3 mps 737 mmHg 82%
    08:00 +6°C° 0 mm 4 mps 737 mmHg 76%
    09:00 +7°C° 0 mm 5 mps 737 mmHg 70%
    10:00 +9°C° 0 mm 6 mps 736 mmHg 64%
    11:00 +10°C° 0 mm 6 mps 736 mmHg 61%
    12:00 +11°C° 0 mm 7 mps 736 mmHg 57%
    13:00 +12°C° 0 mm 7 mps 735 mmHg 53%
    14:00 +12°C° 0 mm 7 mps 735 mmHg 54%
    15:00 +13°C° 0 mm 6 mps 734 mmHg 55%
    16:00 +12°C° 0 mm 5 mps 734 mmHg 57%
    17:00 +10°C° 0 mm 5 mps 734 mmHg 61%
    18:00 +10°C° 0 mm 5 mps 733 mmHg 66%
    19:00 +9°C° 0 mm 5 mps 733 mmHg 70%
    20:00 +8°C° 0 mm 5 mps 733 mmHg 71%
    21:00 +8°C° 0 mm 5 mps 732 mmHg 72%
    22:00 +8°C° 0 mm 5 mps 732 mmHg 73%
    23:00 +8°C° 0 mm 5 mps 732 mmHg 73%
    Show more